Wetterdaten: Samstag, 20.07.2013
Datum Zeit Temperatur Luftfeuchte Luftdruck Regen Wind Richtung Richtung Taupunkt Windchill Windben
20.07.2013 00:00 14,6 C 94 % 1023,2 hPa 0,0 l/m 0,3 km/h (0 Bft) SO 135 13,6 C 14,7 C 0,0 km/h (0 Bft)
20.07.2013 00:05 14,5 C 94 % 1023,1 hPa 0,0 l/m 0,3 km/h (0 Bft) W-SW 247 13,5 C 14,6 C 2,1 km/h (1 Bft)
20.07.2013 00:10 14,5 C 94 % 1023,1 hPa 0,0 l/m 0,3 km/h (0 Bft) S 180 13,5 C 14,6 C 0,0 km/h (0 Bft)
20.07.2013 00:15 14,5 C 94 % 1023,1 hPa 0,0 l/m 0,6 km/h (0 Bft) SW 225 13,5 C 14,6 C 0,0 km/h (0 Bft)
20.07.2013 00:20 14,6 C 94 % 1023,1 hPa 0,0 l/m 0,5 km/h (0 Bft) W 270 13,6 C 14,6 C 2,4 km/h (1 Bft)
20.07.2013 00:25 14,5 C 94 % 1023,2 hPa 0,0 l/m 0,2 km/h (0 Bft) W 270 13,5 C 14,5 C 0,0 km/h (0 Bft)
20.07.2013 00:30 14,4 C 94 % 1023,2 hPa 0,0 l/m 0,0 km/h (0 Bft) NO 45 13,4 C 14,4 C 0,0 km/h (0 Bft)
20.07.2013 00:35 14,4 C 94 % 1023,2 hPa 0,0 l/m 0,0 km/h (0 Bft) NO 45 13,4 C 14,4 C 0,0 km/h (0 Bft)
20.07.2013 00:40 14,4 C 94 % 1023,2 hPa 0,0 l/m 0,2 km/h (0 Bft) O-NO 67 13,4 C 14,3 C 0,0 km/h (0 Bft)
20.07.2013 00:45 14,3 C 94 % 1023,2 hPa 0,0 l/m 0,2 km/h (0 Bft) O-NO 67 13,3 C 14,2 C 0,0 km/h (0 Bft)
20.07.2013 00:50 14,4 C 94 % 1023,2 hPa 0,0 l/m 0,2 km/h (0 Bft) N-NO 22 13,4 C 14,2 C 0,0 km/h (0 Bft)
20.07.2013 00:55 14,3 C 94 % 1023,2 hPa 0,0 l/m 0,3 km/h (0 Bft) NO 45 13,3 C 14,2 C 0,0 km/h (0 Bft)
20.07.2013 01:00 14,2 C 94 % 1023,2 hPa 0,0 l/m 0,2 km/h (0 Bft) NO 45 13,2 C 14,1 C 0,0 km/h (0 Bft)
20.07.2013 01:05 14,3 C 94 % 1023,1 hPa 0,0 l/m 0,0 km/h (0 Bft) N 360 13,3 C 14,0 C 0,0 km/h (0 Bft)
20.07.2013 01:10 14,1 C 94 % 1023,1 hPa 0,0 l/m 0,0 km/h (0 Bft) N 360 13,1 C 13,9 C 0,0 km/h (0 Bft)
20.07.2013 01:15 14,1 C 94 % 1023,1 hPa 0,0 l/m 0,0 km/h (0 Bft) N-NW 337 13,1 C 13,8 C 0,0 km/h (0 Bft)
20.07.2013 01:20 14,1 C 94 % 1023,1 hPa 0,0 l/m 0,0 km/h (0 Bft) N-NO 22 13,1 C 13,7 C 0,0 km/h (0 Bft)
20.07.2013 01:25 13,9 C 94 % 1023,1 hPa 0,0 l/m 0,0 km/h (0 Bft) NO 45 12,9 C 13,8 C 1,6 km/h (1 Bft)
20.07.2013 01:30 14,1 C 94 % 1023,1 hPa 0,0 l/m 0,2 km/h (0 Bft) N-NO 22 13,1 C 13,9 C 0,0 km/h (0 Bft)
20.07.2013 01:35 14,1 C 94 % 1023,1 hPa 0,0 l/m 0,2 km/h (0 Bft) N-NO 22 13,1 C 13,9 C 0,0 km/h (0 Bft)
20.07.2013 01:40 14,1 C 94 % 1023,1 hPa 0,0 l/m 0,0 km/h (0 Bft) N-NO 22 13,1 C 13,9 C 0,0 km/h (0 Bft)
20.07.2013 01:45 14,1 C 94 % 1023,1 hPa 0,0 l/m 0,0 km/h (0 Bft) N-NW 337 13,1 C 13,9 C 0,0 km/h (0 Bft)
20.07.2013 01:50 14,2 C 94 % 1023,1 hPa 0,0 l/m 0,3 km/h (0 Bft) NO 45 13,2 C 14,0 C 1,9 km/h (1 Bft)
20.07.2013 01:55 14,2 C 94 % 1023,1 hPa 0,0 l/m 0,6 km/h (0 Bft) NO 45 13,2 C 14,0 C 1,9 km/h (1 Bft)
20.07.2013 02:00 14,3 C 94 % 1023,1 hPa 0,0 l/m 0,8 km/h (0 Bft) NO 45 13,3 C 14,1 C 1,6 km/h (1 Bft)
20.07.2013 02:05 14,2 C 94 % 1023,1 hPa 0,0 l/m 1,0 km/h (0 Bft) O 90 13,2 C 14,2 C 1,9 km/h (1 Bft)
20.07.2013 02:10 14,2 C 94 % 1023,1 hPa 0,0 l/m 1,9 km/h (1 Bft) O-NO 67 13,2 C 14,2 C 3,9 km/h (1 Bft)
20.07.2013 02:15 14,2 C 94 % 1023,1 hPa 0,0 l/m 1,6 km/h (1 Bft) O-NO 67 13,2 C 14,1 C 1,8 km/h (1 Bft)
20.07.2013 02:20 14,0 C 94 % 1023,1 hPa 0,0 l/m 1,0 km/h (0 Bft) NO 45 13,0 C 13,9 C 0,0 km/h (0 Bft)
20.07.2013 02:25 13,9 C 95 % 1022,8 hPa 0,0 l/m 0,8 km/h (0 Bft) S-SO 157 13,1 C 13,9 C 0,0 km/h (0 Bft)
20.07.2013 02:30 13,8 C 95 % 1022,8 hPa 0,0 l/m 0,2 km/h (0 Bft) W-SW 247 13,0 C 13,9 C 0,0 km/h (0 Bft)
20.07.2013 02:35 13,9 C 95 % 1022,8 hPa 0,0 l/m 0,2 km/h (0 Bft) W-SW 247 13,1 C 13,7 C 0,0 km/h (0 Bft)
20.07.2013 02:40 13,8 C 95 % 1022,8 hPa 0,0 l/m 0,0 km/h (0 Bft) W 270 13,0 C 13,6 C 0,0 km/h (0 Bft)
20.07.2013 02:45 13,7 C 95 % 1023,0 hPa 0,0 l/m 0,0 km/h (0 Bft) W 270 12,9 C 13,6 C 0,0 km/h (0 Bft)
20.07.2013 02:50 13,6 C 95 % 1023,0 hPa 0,0 l/m 0,2 km/h (0 Bft) O 90 12,8 C 13,6 C 0,0 km/h (0 Bft)
20.07.2013 02:55 13,7 C 95 % 1023,0 hPa 0,0 l/m 0,2 km/h (0 Bft) O 90 12,9 C 13,5 C 0,0 km/h (0 Bft)
20.07.2013 03:00 13,8 C 95 % 1023,0 hPa 0,0 l/m 0,0 km/h (0 Bft) O 90 13,0 C 13,6 C 0,0 km/h (0 Bft)
20.07.2013 03:05 13,8 C 95 % 1023,0 hPa 0,0 l/m 0,5 km/h (0 Bft) O-NO 67 13,0 C 13,6 C 2,6 km/h (1 Bft)
20.07.2013 03:10 13,8 C 95 % 1023,0 hPa 0,0 l/m 0,8 km/h (0 Bft) S-SW 202 13,0 C 13,6 C 0,0 km/h (0 Bft)
20.07.2013 03:15 13,6 C 95 % 1023,0 hPa 0,0 l/m 1,0 km/h (0 Bft) S 180 12,8 C 13,6 C 0,0 km/h (0 Bft)
20.07.2013 03:20 13,5 C 95 % 1023,0 hPa 0,0 l/m 0,5 km/h (0 Bft) S 180 12,7 C 13,4 C 0,0 km/h (0 Bft)
20.07.2013 03:25 13,3 C 95 % 1022,8 hPa 0,0 l/m 0,0 km/h (0 Bft) SW 225 12,5 C 13,2 C 0,0 km/h (0 Bft)
20.07.2013 03:30 13,2 C 95 % 1022,8 hPa 0,0 l/m 0,0 km/h (0 Bft) S-SW 202 12,4 C 13,0 C 0,0 km/h (0 Bft)
20.07.2013 03:35 13,0 C 95 % 1022,8 hPa 0,0 l/m 0,0 km/h (0 Bft) S 180 12,2 C 12,8 C 0,0 km/h (0 Bft)
20.07.2013 03:40 13,0 C 95 % 1022,8 hPa 0,0 l/m 0,0 km/h (0 Bft) W-SW 247 12,2 C 12,7 C 0,0 km/h (0 Bft)
20.07.2013 03:45 12,9 C 95 % 1022,7 hPa 0,0 l/m 0,0 km/h (0 Bft) SO 135 12,1 C 12,7 C 0,0 km/h (0 Bft)
20.07.2013 03:50 12,9 C 95 % 1022,7 hPa 0,0 l/m 0,3 km/h (0 Bft) S-SW 202 12,1 C 12,7 C 4,0 km/h (1 Bft)
20.07.2013 03:55 13,0 C 95 % 1022,7 hPa 0,0 l/m 0,3 km/h (0 Bft) S-SW 202 12,2 C 13,0 C 0,0 km/h (0 Bft)
20.07.2013 04:00 13,0 C 95 % 1022,7 hPa 0,0 l/m 0,2 km/h (0 Bft) W-SW 247 12,2 C 13,1 C 0,0 km/h (0 Bft)
20.07.2013 04:05 13,1 C 95 % 1022,4 hPa 0,0 l/m 0,0 km/h (0 Bft) W-SW 247 12,3 C 13,0 C 0,0 km/h (0 Bft)
20.07.2013 04:10 13,0 C 95 % 1022,4 hPa 0,0 l/m 0,0 km/h (0 Bft) W-SW 247 12,2 C 12,8 C 0,0 km/h (0 Bft)
20.07.2013 04:15 13,0 C 95 % 1022,4 hPa 0,0 l/m 0,0 km/h (0 Bft) W-SW 247 12,2 C 12,7 C 0,0 km/h (0 Bft)
20.07.2013 04:20 12,9 C 95 % 1022,4 hPa 0,0 l/m 0,0 km/h (0 Bft) SO 135 12,1 C 12,7 C 0,0 km/h (0 Bft)
20.07.2013 04:25 12,9 C 95 % 1022,4 hPa 0,0 l/m 0,0 km/h (0 Bft) S-SW 202 12,1 C 12,7 C 0,0 km/h (0 Bft)
20.07.2013 04:30 13,1 C 95 % 1022,4 hPa 0,0 l/m 0,0 km/h (0 Bft) S-SO 157 12,3 C 12,8 C 0,0 km/h (0 Bft)
20.07.2013 04:35 13,0 C 95 % 1022,4 hPa 0,0 l/m 0,0 km/h (0 Bft) SW 225 12,2 C 12,8 C 0,0 km/h (0 Bft)
20.07.2013 04:40 13,1 C 95 % 1022,4 hPa 0,0 l/m 0,0 km/h (0 Bft) O 90 12,3 C 12,7 C 0,0 km/h (0 Bft)
20.07.2013 04:45 13,0 C 95 % 1022,4 hPa 0,0 l/m 0,0 km/h (0 Bft) O-SO 112 12,2 C 12,7 C 0,0 km/h (0 Bft)
20.07.2013 04:50 12,7 C 95 % 1022,4 hPa 0,0 l/m 0,0 km/h (0 Bft) O 90 11,9 C 12,6 C 0,0 km/h (0 Bft)
20.07.2013 04:55 12,7 C 95 % 1022,4 hPa 0,0 l/m 0,0 km/h (0 Bft) N 360 11,9 C 12,4 C 0,0 km/h (0 Bft)
20.07.2013 05:00 12,8 C 95 % 1022,4 hPa 0,0 l/m 0,0 km/h (0 Bft) N 360 12,0 C 12,4 C 0,0 km/h (0 Bft)
20.07.2013 05:05 12,7 C 95 % 1022,1 hPa 0,0 l/m 0,0 km/h (0 Bft) N 360 11,9 C 12,4 C 0,0 km/h (0 Bft)
20.07.2013 05:10 12,6 C 95 % 1022,1 hPa 0,0 l/m 0,0 km/h (0 Bft) NO 45 11,8 C 12,2 C 0,0 km/h (0 Bft)
20.07.2013 05:15 12,6 C 95 % 1022,1 hPa 0,0 l/m 0,0 km/h (0 Bft) O-NO 67 11,8 C 12,2 C 0,0 km/h (0 Bft)
20.07.2013 05:20 12,5 C 95 % 1022,1 hPa 0,0 l/m 0,0 km/h (0 Bft) N-NO 22 11,7 C 12,2 C 0,0 km/h (0 Bft)
20.07.2013 05:25 12,4 C 95 % 1022,2 hPa 0,0 l/m 0,0 km/h (0 Bft) N-NO 22 11,6 C 12,2 C 0,0 km/h (0 Bft)
20.07.2013 05:30 12,3 C 95 % 1022,2 hPa 0,0 l/m 0,0 km/h (0 Bft) N-NO 22 11,5 C 12,0 C 0,0 km/h (0 Bft)
20.07.2013 05:35 12,2 C 95 % 1022,2 hPa 0,0 l/m 0,0 km/h (0 Bft) N-NO 22 11,4 C 12,0 C 0,0 km/h (0 Bft)
20.07.2013 05:40 12,1 C 95 % 1022,2 hPa 0,0 l/m 0,0 km/h (0 Bft) N 360 11,3 C 11,9 C 0,0 km/h (0 Bft)
20.07.2013 05:45 12,1 C 95 % 1022,0 hPa 0,0 l/m 0,0 km/h (0 Bft) W 270 11,3 C 11,8 C 0,0 km/h (0 Bft)
20.07.2013 05:50 12,3 C 95 % 1022,0 hPa 0,0 l/m 0,5 km/h (0 Bft) O 90 11,5 C 11,9 C 2,1 km/h (1 Bft)
20.07.2013 05:55 12,5 C 95 % 1022,0 hPa 0,0 l/m 0,6 km/h (0 Bft) O 90 11,7 C 12,0 C 0,0 km/h (0 Bft)
20.07.2013 06:00 12,6 C 95 % 1022,0 hPa 0,0 l/m 0,3 km/h (0 Bft) NO 45 11,8 C 12,2 C 0,0 km/h (0 Bft)
20.07.2013 06:05 12,6 C 95 % 1021,9 hPa 0,0 l/m 0,0 km/h (0 Bft) N 360 11,8 C 12,3 C 0,0 km/h (0 Bft)
20.07.2013 06:10 12,8 C 95 % 1021,9 hPa 0,0 l/m 0,2 km/h (0 Bft) NO 45 12,0 C 12,7 C 0,0 km/h (0 Bft)
20.07.2013 06:15 13,0 C 95 % 1021,9 hPa 0,0 l/m 0,3 km/h (0 Bft) N-NW 337 12,2 C 13,0 C 0,0 km/h (0 Bft)
20.07.2013 06:20 13,0 C 95 % 1021,9 hPa 0,0 l/m 0,3 km/h (0 Bft) N-NO 22 12,2 C 13,4 C 0,0 km/h (0 Bft)
20.07.2013 06:25 13,5 C 95 % 1022,1 hPa 0,0 l/m 0,3 km/h (0 Bft) N 360 12,7 C 13,6 C 0,0 km/h (0 Bft)
20.07.2013 06:30 14,2 C 95 % 1022,1 hPa 0,0 l/m 0,2 km/h (0 Bft) N 360 13,4 C 13,4 C 0,0 km/h (0 Bft)
20.07.2013 06:35 14,4 C 95 % 1022,1 hPa 0,0 l/m 0,0 km/h (0 Bft) W-NW 292 13,6 C 13,4 C 0,0 km/h (0 Bft)
20.07.2013 06:40 13,6 C 95 % 1022,1 hPa 0,0 l/m 0,6 km/h (0 Bft) S 180 12,8 C 13,9 C 0,0 km/h (0 Bft)
20.07.2013 06:45 13,5 C 95 % 1022,2 hPa 0,0 l/m 0,6 km/h (0 Bft) W 270 12,7 C 14,7 C 0,0 km/h (0 Bft)
20.07.2013 06:50 14,5 C 94 % 1022,2 hPa 0,0 l/m 0,2 km/h (0 Bft) W 270 13,5 C 15,3 C 0,0 km/h (0 Bft)
20.07.2013 06:55 15,3 C 94 % 1022,2 hPa 0,0 l/m 0,2 km/h (0 Bft) W 270 14,3 C 15,8 C 0,0 km/h (0 Bft)
20.07.2013 07:00 15,4 C 94 % 1022,2 hPa 0,0 l/m 0,0 km/h (0 Bft) W 270 14,4 C 16,5 C 0,0 km/h (0 Bft)
20.07.2013 07:05 16,2 C 93 % 1022,4 hPa 0,0 l/m 0,0 km/h (0 Bft) W 270 15,1 C 17,1 C 0,0 km/h (0 Bft)
20.07.2013 07:10 17,1 C 92 % 1022,4 hPa 0,0 l/m 0,0 km/h (0 Bft) W-SW 247 15,8 C 17,9 C 0,0 km/h (0 Bft)
20.07.2013 07:15 16,7 C 92 % 1022,4 hPa 0,0 l/m 0,0 km/h (0 Bft) W 270 15,4 C 18,3 C 0,0 km/h (0 Bft)
20.07.2013 07:20 16,9 C 91 % 1022,4 hPa 0,0 l/m 0,0 km/h (0 Bft) W 270 15,4 C 18,7 C 0,0 km/h (0 Bft)
20.07.2013 07:25 17,2 C 90 % 1022,4 hPa 0,0 l/m 0,0 km/h (0 Bft) NW 315 15,5 C 19,2 C 0,0 km/h (0 Bft)
20.07.2013 07:30 18,0 C 89 % 1022,4 hPa 0,0 l/m 0,0 km/h (0 Bft) N-NW 337 16,2 C 20,0 C 0,0 km/h (0 Bft)
20.07.2013 07:35 18,2 C 88 % 1022,4 hPa 0,0 l/m 0,0 km/h (0 Bft) N-NW 337 16,2 C 20,4 C 0,0 km/h (0 Bft)
20.07.2013 07:40 18,6 C 86 % 1022,4 hPa 0,0 l/m 0,0 km/h (0 Bft) N-NO 22 16,2 C 20,8 C 0,0 km/h (0 Bft)
20.07.2013 07:45 19,0 C 86 % 1022,6 hPa 0,0 l/m 0,0 km/h (0 Bft) NO 45 16,6 C 21,0 C 0,0 km/h (0 Bft)
20.07.2013 07:50 19,6 C 86 % 1022,6 hPa 0,0 l/m 0,0 km/h (0 Bft) N 360 17,2 C 21,8 C 0,0 km/h (0 Bft)
20.07.2013 07:55 19,7 C 85 % 1022,6 hPa 0,0 l/m 0,0 km/h (0 Bft) N-NO 22 17,1 C 22,0 C 0,0 km/h (0 Bft)
20.07.2013 08:00 20,5 C 84 % 1022,6 hPa 0,0 l/m 0,0 km/h (0 Bft) N-NO 22 17,7 C 22,6 C 0,0 km/h (0 Bft)
20.07.2013 08:05 20,5 C 80 % 1022,6 hPa 0,0 l/m 0,0 km/h (0 Bft) N-NO 22 16,9 C 22,8 C 0,0 km/h (0 Bft)
20.07.2013 08:10 21,1 C 82 % 1022,6 hPa 0,0 l/m 0,0 km/h (0 Bft) NO 45 17,9 C 23,4 C 0,0 km/h (0 Bft)
20.07.2013 08:15 21,5 C 83 % 1022,6 hPa 0,0 l/m 0,0 km/h (0 Bft) O-NO 67 18,5 C 23,8 C 0,0 km/h (0 Bft)
20.07.2013 08:20 21,9 C 83 % 1022,6 hPa 0,0 l/m 0,0 km/h (0 Bft) O 90 18,9 C 24,5 C 0,0 km/h (0 Bft)
20.07.2013 08:25 22,3 C 83 % 1022,7 hPa 0,0 l/m 0,0 km/h (0 Bft) S 180 19,3 C 25,0 C 0,0 km/h (0 Bft)
20.07.2013 08:30 22,8 C 82 % 1022,7 hPa 0,0 l/m 0,2 km/h (0 Bft) S-SW 202 19,6 C 25,6 C 2,1 km/h (1 Bft)
20.07.2013 08:35 23,2 C 80 % 1022,7 hPa 0,0 l/m 0,5 km/h (0 Bft) SW 225 19,6 C 25,6 C 0,0 km/h (0 Bft)
20.07.2013 08:40 23,2 C 80 % 1022,7 hPa 0,0 l/m 0,6 km/h (0 Bft) S-SO 157 19,6 C 25,7 C 0,0 km/h (0 Bft)
20.07.2013 08:45 23,5 C 79 % 1022,8 hPa 0,0 l/m 0,8 km/h (0 Bft) O-SO 112 19,6 C 25,7 C 0,0 km/h (0 Bft)
20.07.2013 08:50 23,9 C 79 % 1022,8 hPa 0,0 l/m 0,6 km/h (0 Bft) NO 45 20,0 C 26,0 C 0,0 km/h (0 Bft)
20.07.2013 08:55 23,9 C 79 % 1022,8 hPa 0,0 l/m 0,3 km/h (0 Bft) NO 45 20,0 C 26,3 C 0,0 km/h (0 Bft)
20.07.2013 09:00 24,0 C 77 % 1022,8 hPa 0,0 l/m 0,3 km/h (0 Bft) O-SO 112 19,7 C 26,6 C 0,0 km/h (0 Bft)
20.07.2013 09:05 24,0 C 78 % 1022,8 hPa 0,0 l/m 0,5 km/h (0 Bft) N-NO 22 19,9 C 26,6 C 0,0 km/h (0 Bft)
20.07.2013 09:10 25,1 C 79 % 1022,8 hPa 0,0 l/m 0,3 km/h (0 Bft) O-SO 112 21,2 C 26,8 C 0,0 km/h (0 Bft)
20.07.2013 09:15 25,2 C 80 % 1022,8 hPa 0,0 l/m 0,2 km/h (0 Bft) O 90 21,5 C 27,3 C 0,0 km/h (0 Bft)
20.07.2013 09:20 25,4 C 79 % 1022,8 hPa 0,0 l/m 0,3 km/h (0 Bft) S 180 21,5 C 27,8 C 1,8 km/h (1 Bft)
20.07.2013 09:25 26,1 C 78 % 1022,9 hPa 0,0 l/m 0,6 km/h (0 Bft) W-SW 247 22,0 C 27,9 C 2,3 km/h (1 Bft)
20.07.2013 09:30 26,9 C 70 % 1022,9 hPa 0,0 l/m 1,6 km/h (1 Bft) W-SW 247 21,0 C 27,6 C 5,0 km/h (1 Bft)
20.07.2013 09:35 26,8 C 70 % 1022,9 hPa 0,0 l/m 2,1 km/h (1 Bft) S 180 20,9 C 27,5 C 0,0 km/h (0 Bft)
20.07.2013 09:40 26,6 C 70 % 1022,9 hPa 0,0 l/m 1,1 km/h (1 Bft) S-SW 202 20,7 C 27,7 C 1,9 km/h (1 Bft)
20.07.2013 09:45 27,5 C 73 % 1023,0 hPa 0,0 l/m 0,8 km/h (0 Bft) SO 135 22,2 C 28,2 C 2,1 km/h (1 Bft)
20.07.2013 09:50 27,6 C 69 % 1023,0 hPa 0,0 l/m 1,4 km/h (1 Bft) SW 225 21,4 C 28,3 C 2,4 km/h (1 Bft)
20.07.2013 09:55 27,5 C 65 % 1023,0 hPa 0,0 l/m 1,8 km/h (1 Bft) W 270 20,3 C 28,1 C 3,1 km/h (1 Bft)
20.07.2013 10:00 27,1 C 62 % 1023,0 hPa 0,0 l/m 2,3 km/h (1 Bft) W-NW 292 19,2 C 27,6 C 2,6 km/h (1 Bft)
20.07.2013 10:05 27,2 C 60 % 1023,1 hPa 0,0 l/m 2,1 km/h (1 Bft) O-NO 67 18,7 C 27,8 C 2,4 km/h (1 Bft)
20.07.2013 10:10 27,2 C 57 % 1023,1 hPa 0,0 l/m 1,9 km/h (1 Bft) W-SW 247 17,9 C 27,9 C 1,6 km/h (1 Bft)
20.07.2013 10:15 26,9 C 56 % 1023,1 hPa 0,0 l/m 1,8 km/h (1 Bft) W-NW 292 17,4 C 28,2 C 1,8 km/h (1 Bft)
20.07.2013 10:20 27,2 C 53 % 1023,1 hPa 0,0 l/m 1,1 km/h (1 Bft) N-NW 337 16,8 C 28,7 C 5,6 km/h (1 Bft)
20.07.2013 10:25 26,7 C 50 % 1023,1 hPa 0,0 l/m 1,8 km/h (1 Bft) W-NW 292 15,4 C 28,5 C 2,4 km/h (1 Bft)
20.07.2013 10:30 27,3 C 47 % 1023,1 hPa 0,0 l/m 3,9 km/h (1 Bft) W 270 15,0 C 28,0 C 7,2 km/h (2 Bft)
20.07.2013 10:35 26,8 C 45 % 1023,1 hPa 0,0 l/m 3,9 km/h (1 Bft) SW 225 13,9 C 27,8 C 5,0 km/h (1 Bft)
20.07.2013 10:40 26,7 C 47 % 1023,1 hPa 0,0 l/m 3,5 km/h (1 Bft) N-NW 337 14,4 C 27,8 C 5,0 km/h (1 Bft)
20.07.2013 10:45 26,8 C 47 % 1023,2 hPa 0,0 l/m 3,1 km/h (1 Bft) W-NW 292 14,5 C 28,2 C 3,4 km/h (1 Bft)
20.07.2013 10:50 26,6 C 46 % 1023,2 hPa 0,0 l/m 3,5 km/h (1 Bft) N-NO 22 14,0 C 28,0 C 7,9 km/h (2 Bft)
20.07.2013 10:55 26,7 C 47 % 1023,2 hPa 0,0 l/m 4,0 km/h (1 Bft) N-NO 22 14,4 C 27,7 C 4,2 km/h (1 Bft)
20.07.2013 11:00 26,3 C 48 % 1023,2 hPa 0,0 l/m 4,3 km/h (1 Bft) NW 315 14,4 C 27,8 C 8,2 km/h (2 Bft)
20.07.2013 11:05 25,3 C 51 % 1023,5 hPa 0,0 l/m 3,7 km/h (1 Bft) N 360 14,4 C 27,2 C 5,0 km/h (1 Bft)
20.07.2013 11:10 24,7 C 55 % 1023,5 hPa 0,0 l/m 2,9 km/h (1 Bft) N-NW 337 15,0 C 26,1 C 4,5 km/h (1 Bft)
20.07.2013 11:15 24,3 C 55 % 1023,5 hPa 0,0 l/m 3,5 km/h (1 Bft) N-NW 337 14,7 C 25,2 C 4,5 km/h (1 Bft)
20.07.2013 11:20 24,5 C 55 % 1023,5 hPa 0,0 l/m 4,0 km/h (1 Bft) W-NW 292 14,9 C 24,8 C 9,2 km/h (2 Bft)
20.07.2013 11:25 24,6 C 56 % 1023,7 hPa 0,0 l/m 3,9 km/h (1 Bft) W-NW 292 15,2 C 24,6 C 3,1 km/h (1 Bft)
20.07.2013 11:30 25,1 C 53 % 1023,7 hPa 0,0 l/m 4,5 km/h (1 Bft) W-NW 292 14,8 C 25,0 C 10,0 km/h (2 Bft)
20.07.2013 11:35 25,2 C 53 % 1023,7 hPa 0,0 l/m 5,0 km/h (1 Bft) N-NW 337 14,9 C 24,8 C 4,3 km/h (1 Bft)
20.07.2013 11:40 25,9 C 53 % 1023,7 hPa 0,0 l/m 5,0 km/h (1 Bft) N 360 15,6 C 25,6 C 5,0 km/h (1 Bft)
20.07.2013 11:45 26,4 C 49 % 1023,7 hPa 0,0 l/m 4,8 km/h (1 Bft) W-NW 292 14,8 C 26,0 C 5,8 km/h (2 Bft)
20.07.2013 11:50 27,9 C 44 % 1023,7 hPa 0,0 l/m 4,7 km/h (1 Bft) NW 315 14,5 C 27,2 C 8,2 km/h (2 Bft)
20.07.2013 11:55 27,0 C 46 % 1023,7 hPa 0,0 l/m 4,5 km/h (1 Bft) N-NO 22 14,4 C 27,5 C 2,1 km/h (1 Bft)
20.07.2013 12:00 26,0 C 47 % 1023,7 hPa 0,0 l/m 4,3 km/h (1 Bft) NW 315 13,8 C 27,6 C 6,4 km/h (2 Bft)
20.07.2013 12:05 26,5 C 48 % 1023,6 hPa 0,0 l/m 3,4 km/h (1 Bft) N-NO 22 14,6 C 27,4 C 7,6 km/h (2 Bft)
20.07.2013 12:10 27,0 C 48 % 1023,6 hPa 0,0 l/m 4,2 km/h (1 Bft) N-NW 337 15,0 C 27,5 C 8,2 km/h (2 Bft)
20.07.2013 12:15 27,5 C 48 % 1023,6 hPa 0,0 l/m 5,0 km/h (1 Bft) W-NW 292 15,5 C 27,6 C 5,0 km/h (1 Bft)
20.07.2013 12:20 26,0 C 47 % 1023,6 hPa 0,0 l/m 4,0 km/h (1 Bft) N 360 13,8 C 28,0 C 6,8 km/h (2 Bft)
20.07.2013 12:25 26,6 C 48 % 1023,7 hPa 0,0 l/m 3,9 km/h (1 Bft) O-NO 67 14,7 C 27,9 C 3,5 km/h (1 Bft)
20.07.2013 12:30 26,3 C 49 % 1023,7 hPa 0,0 l/m 3,7 km/h (1 Bft) O-NO 67 14,7 C 28,2 C 5,1 km/h (1 Bft)
20.07.2013 12:35 26,7 C 49 % 1023,7 hPa 0,0 l/m 3,2 km/h (1 Bft) N 360 15,1 C 28,2 C 1,6 km/h (1 Bft)
20.07.2013 12:40 26,8 C 46 % 1023,7 hPa 0,0 l/m 4,5 km/h (1 Bft) N-NW 337 14,2 C 28,1 C 13,2 km/h (3 Bft)
20.07.2013 12:45 27,0 C 46 % 1023,7 hPa 0,0 l/m 5,0 km/h (1 Bft) W 270 14,4 C 28,0 C 8,7 km/h (2 Bft)
20.07.2013 12:50 26,9 C 49 % 1023,7 hPa 0,0 l/m 5,0 km/h (1 Bft) S-SW 202 15,3 C 27,9 C 4,7 km/h (1 Bft)
20.07.2013 12:55 27,0 C 47 % 1023,7 hPa 0,0 l/m 5,5 km/h (1 Bft) N 360 14,7 C 28,0 C 7,2 km/h (2 Bft)
20.07.2013 13:00 26,7 C 46 % 1023,7 hPa 0,0 l/m 4,8 km/h (1 Bft) NO 45 14,1 C 28,1 C 6,3 km/h (2 Bft)
20.07.2013 13:05 26,9 C 45 % 1023,7 hPa 0,0 l/m 4,5 km/h (1 Bft) N-NW 337 13,9 C 28,3 C 5,5 km/h (1 Bft)
20.07.2013 13:10 26,5 C 47 % 1023,7 hPa 0,0 l/m 4,7 km/h (1 Bft) W-SW 247 14,3 C 28,2 C 0,0 km/h (0 Bft)
20.07.2013 13:15 26,6 C 46 % 1023,7 hPa 0,0 l/m 4,8 km/h (1 Bft) N 360 14,0 C 28,5 C 13,2 km/h (3 Bft)
20.07.2013 13:20 26,9 C 45 % 1023,7 hPa 0,0 l/m 4,7 km/h (1 Bft) N-NW 337 13,9 C 28,7 C 7,7 km/h (2 Bft)
20.07.2013 13:25 27,1 C 44 % 1023,9 hPa 0,0 l/m 5,0 km/h (1 Bft) W 270 13,8 C 28,5 C 4,8 km/h (1 Bft)
20.07.2013 13:30 27,2 C 46 % 1023,9 hPa 0,0 l/m 4,0 km/h (1 Bft) W 270 14,6 C 28,8 C 7,2 km/h (2 Bft)
20.07.2013 13:35 27,0 C 45 % 1023,9 hPa 0,0 l/m 4,7 km/h (1 Bft) W-NW 292 14,0 C 28,7 C 9,0 km/h (2 Bft)
20.07.2013 13:40 27,2 C 43 % 1023,9 hPa 0,0 l/m 5,5 km/h (1 Bft) N-NW 337 13,5 C 28,5 C 9,0 km/h (2 Bft)
20.07.2013 13:45 27,2 C 43 % 1023,6 hPa 0,0 l/m 5,3 km/h (1 Bft) W-NW 292 13,5 C 28,5 C 6,3 km/h (2 Bft)
20.07.2013 13:50 27,3 C 44 % 1023,6 hPa 0,0 l/m 5,1 km/h (1 Bft) NO 45 14,0 C 28,8 C 4,7 km/h (1 Bft)
20.07.2013 13:55 27,8 C 43 % 1023,6 hPa 0,0 l/m 4,5 km/h (1 Bft) N 360 14,1 C 29,3 C 6,9 km/h (2 Bft)
20.07.2013 14:00 27,8 C 41 % 1023,6 hPa 0,0 l/m 4,7 km/h (1 Bft) N-NW 337 13,3 C 29,3 C 4,2 km/h (1 Bft)
20.07.2013 14:05 27,4 C 43 % 1023,5 hPa 0,0 l/m 5,0 km/h (1 Bft) N-NW 337 13,7 C 29,5 C 8,0 km/h (2 Bft)
20.07.2013 14:10 28,3 C 43 % 1023,5 hPa 0,0 l/m 4,0 km/h (1 Bft) N-NW 337 14,5 C 29,7 C 4,7 km/h (1 Bft)
20.07.2013 14:15 28,2 C 40 % 1023,5 hPa 0,0 l/m 4,5 km/h (1 Bft) W-NW 292 13,3 C 29,7 C 3,1 km/h (1 Bft)
20.07.2013 14:20 28,5 C 41 % 1023,5 hPa 0,0 l/m 4,7 km/h (1 Bft) W-SW 247 13,9 C 29,9 C 15,1 km/h (3 Bft)
20.07.2013 14:25 28,5 C 39 % 1023,2 hPa 0,0 l/m 4,3 km/h (1 Bft) N-NW 337 13,2 C 30,3 C 8,4 km/h (2 Bft)
20.07.2013 14:30 28,7 C 40 % 1023,2 hPa 0,0 l/m 4,0 km/h (1 Bft) W-NW 292 13,7 C 30,2 C 0,0 km/h (0 Bft)
20.07.2013 14:35 28,9 C 39 % 1023,2 hPa 0,0 l/m 4,5 km/h (1 Bft) N-NW 337 13,5 C 30,5 C 6,1 km/h (2 Bft)
20.07.2013 14:40 28,6 C 39 % 1023,2 hPa 0,0 l/m 3,7 km/h (1 Bft) NW 315 13,3 C 30,9 C 7,4 km/h (2 Bft)
20.07.2013 14:45 28,4 C 41 % 1023,2 hPa 0,0 l/m 4,0 km/h (1 Bft) W-SW 247 13,9 C 30,8 C 5,5 km/h (1 Bft)
20.07.2013 14:50 28,9 C 39 % 1023,2 hPa 0,0 l/m 4,8 km/h (1 Bft) W-NW 292 13,5 C 30,9 C 6,9 km/h (2 Bft)
20.07.2013 14:55 28,6 C 38 % 1023,2 hPa 0,0 l/m 5,8 km/h (2 Bft) W 270 12,9 C 30,6 C 9,8 km/h (2 Bft)
20.07.2013 15:00 29,0 C 38 % 1023,2 hPa 0,0 l/m 5,5 km/h (1 Bft) N 360 13,2 C 30,3 C 6,0 km/h (2 Bft)
20.07.2013 15:05 28,8 C 38 % 1023,3 hPa 0,0 l/m 5,1 km/h (1 Bft) W-SW 247 13,0 C 30,5 C 6,9 km/h (2 Bft)
20.07.2013 15:10 28,6 C 38 % 1023,3 hPa 0,0 l/m 6,1 km/h (2 Bft) W-NW 292 12,9 C 30,0 C 7,7 km/h (2 Bft)
20.07.2013 15:15 28,2 C 39 % 1023,3 hPa 0,0 l/m 7,2 km/h (2 Bft) N-NW 337 12,9 C 29,7 C 12,6 km/h (3 Bft)
20.07.2013 15:20 26,8 C 44 % 1023,3 hPa 0,0 l/m 5,8 km/h (2 Bft) N 360 13,5 C 28,8 C 10,9 km/h (2 Bft)
20.07.2013 15:25 26,3 C 45 % 1023,2 hPa 0,0 l/m 4,7 km/h (1 Bft) W-NW 292 13,4 C 28,4 C 2,3 km/h (1 Bft)
20.07.2013 15:30 26,5 C 45 % 1023,2 hPa 0,0 l/m 4,5 km/h (1 Bft) W-NW 292 13,6 C 27,6 C 4,0 km/h (1 Bft)
20.07.2013 15:35 26,8 C 45 % 1023,2 hPa 0,0 l/m 4,7 km/h (1 Bft) N-NW 337 13,9 C 27,5 C 5,3 km/h (1 Bft)
20.07.2013 15:40 28,1 C 40 % 1023,2 hPa 0,0 l/m 4,7 km/h (1 Bft) N 360 13,2 C 29,1 C 9,7 km/h (2 Bft)
20.07.2013 15:45 28,0 C 40 % 1022,9 hPa 0,0 l/m 5,0 km/h (1 Bft) O-NO 67 13,1 C 29,7 C 9,8 km/h (2 Bft)
20.07.2013 15:50 27,6 C 39 % 1022,9 hPa 0,0 l/m 5,8 km/h (2 Bft) NW 315 12,4 C 29,7 C 7,7 km/h (2 Bft)
20.07.2013 15:55 28,0 C 39 % 1022,9 hPa 0,0 l/m 4,0 km/h (1 Bft) N 360 12,7 C 30,3 C 5,0 km/h (1 Bft)
20.07.2013 16:00 28,1 C 39 % 1022,9 hPa 0,0 l/m 3,9 km/h (1 Bft) W-SW 247 12,8 C 30,9 C 5,5 km/h (1 Bft)
20.07.2013 16:05 28,6 C 39 % 1022,8 hPa 0,0 l/m 4,0 km/h (1 Bft) N-NO 22 13,3 C 31,1 C 4,8 km/h (1 Bft)
20.07.2013 16:10 28,8 C 39 % 1022,8 hPa 0,0 l/m 3,7 km/h (1 Bft) NO 45 13,4 C 31,7 C 3,9 km/h (1 Bft)
20.07.2013 16:15 28,5 C 38 % 1022,8 hPa 0,0 l/m 3,7 km/h (1 Bft) N-NW 337 12,8 C 32,0 C 5,8 km/h (2 Bft)
20.07.2013 16:20 28,3 C 37 % 1022,8 hPa 0,0 l/m 5,0 km/h (1 Bft) SW 225 12,2 C 31,7 C 7,1 km/h (2 Bft)
20.07.2013 16:25 27,1 C 39 % 1022,9 hPa 0,0 l/m 6,0 km/h (2 Bft) N-NW 337 11,9 C 30,7 C 4,7 km/h (1 Bft)
20.07.2013 16:30 27,3 C 39 % 1022,9 hPa 0,0 l/m 5,3 km/h (1 Bft) N-NW 337 12,1 C 29,4 C 13,5 km/h (3 Bft)
20.07.2013 16:35 26,9 C 40 % 1022,9 hPa 0,0 l/m 4,7 km/h (1 Bft) W-SW 247 12,1 C 29,7 C 3,1 km/h (1 Bft)
20.07.2013 16:40 25,7 C 43 % 1022,9 hPa 0,0 l/m 5,0 km/h (1 Bft) W-NW 292 12,2 C 28,4 C 6,3 km/h (2 Bft)
20.07.2013 16:45 25,8 C 43 % 1022,8 hPa 0,0 l/m 4,5 km/h (1 Bft) W 270 12,3 C 27,7 C 0,0 km/h (0 Bft)
20.07.2013 16:50 26,9 C 41 % 1022,8 hPa 0,0 l/m 4,2 km/h (1 Bft) W-NW 292 12,5 C 29,2 C 19,5 km/h (3 Bft)
20.07.2013 16:55 26,7 C 40 % 1022,8 hPa 0,0 l/m 5,0 km/h (1 Bft) W-NW 292 12,0 C 30,0 C 5,0 km/h (1 Bft)
20.07.2013 17:00 26,4 C 43 % 1022,8 hPa 0,0 l/m 6,0 km/h (2 Bft) W-NW 292 12,8 C 30,9 C 6,1 km/h (2 Bft)
20.07.2013 17:05 25,8 C 45 % 1022,5 hPa 0,0 l/m 4,7 km/h (1 Bft) N-NO 22 13,0 C 29,9 C 5,8 km/h (2 Bft)
20.07.2013 17:10 25,3 C 46 % 1022,5 hPa 0,0 l/m 5,3 km/h (1 Bft) NW 315 12,8 C 28,1 C 4,5 km/h (1 Bft)
20.07.2013 17:15 25,2 C 47 % 1022,5 hPa 0,0 l/m 5,3 km/h (1 Bft) N 360 13,1 C 27,4 C 9,7 km/h (2 Bft)
20.07.2013 17:20 25,2 C 48 % 1022,5 hPa 0,0 l/m 4,2 km/h (1 Bft) N 360 13,4 C 27,1 C 9,2 km/h (2 Bft)
20.07.2013 17:25 25,6 C 48 % 1022,6 hPa 0,0 l/m 3,9 km/h (1 Bft) W-NW 292 13,8 C 27,7 C 6,6 km/h (2 Bft)
20.07.2013 17:30 26,6 C 45 % 1022,6 hPa 0,0 l/m 4,5 km/h (1 Bft) W-SW 247 13,7 C 29,0 C 5,5 km/h (1 Bft)
20.07.2013 17:35 26,3 C 45 % 1022,6 hPa 0,0 l/m 4,3 km/h (1 Bft) N-NO 22 13,4 C 30,1 C 2,7 km/h (1 Bft)
20.07.2013 17:40 25,9 C 47 % 1022,6 hPa 0,0 l/m 3,5 km/h (1 Bft) W-SW 247 13,7 C 29,5 C 4,2 km/h (1 Bft)
20.07.2013 17:45 25,7 C 47 % 1022,5 hPa 0,0 l/m 2,4 km/h (1 Bft) N-NO 22 13,5 C 28,8 C 1,6 km/h (1 Bft)
20.07.2013 17:50 25,5 C 47 % 1022,5 hPa 0,0 l/m 2,7 km/h (1 Bft) W-NW 292 13,3 C 28,1 C 3,7 km/h (1 Bft)
20.07.2013 17:55 25,3 C 48 % 1022,5 hPa 0,0 l/m 3,1 km/h (1 Bft) NW 315 13,5 C 27,7 C 3,2 km/h (1 Bft)
20.07.2013 18:00 25,3 C 49 % 1022,5 hPa 0,0 l/m 3,7 km/h (1 Bft) N-NW 337 13,8 C 27,6 C 6,4 km/h (2 Bft)
20.07.2013 18:05 25,6 C 48 % 1022,2 hPa 0,0 l/m 4,3 km/h (1 Bft) W-NW 292 13,8 C 28,3 C 6,6 km/h (2 Bft)
20.07.2013 18:10 25,4 C 47 % 1022,2 hPa 0,0 l/m 5,1 km/h (1 Bft) N 360 13,3 C 28,8 C 5,5 km/h (1 Bft)
20.07.2013 18:15 25,2 C 49 % 1022,2 hPa 0,0 l/m 5,5 km/h (1 Bft) N 360 13,7 C 28,3 C 6,6 km/h (2 Bft)
20.07.2013 18:20 24,7 C 49 % 1022,2 hPa 0,0 l/m 5,5 km/h (1 Bft) N-NW 337 13,3 C 27,2 C 4,5 km/h (1 Bft)
20.07.2013 18:25 24,6 C 49 % 1022,2 hPa 0,0 l/m 4,3 km/h (1 Bft) O-NO 67 13,2 C 26,7 C 1,8 km/h (1 Bft)
20.07.2013 18:30 24,6 C 50 % 1022,2 hPa 0,0 l/m 3,4 km/h (1 Bft) W 270 13,5 C 26,7 C 1,9 km/h (1 Bft)
20.07.2013 18:35 24,7 C 49 % 1022,2 hPa 0,0 l/m 3,9 km/h (1 Bft) O 90 13,3 C 26,8 C 10,1 km/h (2 Bft)
20.07.2013 18:40 24,7 C 49 % 1022,2 hPa 0,0 l/m 6,3 km/h (2 Bft) SO 135 13,3 C 27,1 C 6,3 km/h (2 Bft)
20.07.2013 18:45 24,6 C 49 % 1022,3 hPa 0,0 l/m 7,2 km/h (2 Bft) NO 45 13,2 C 26,8 C 6,3 km/h (2 Bft)
20.07.2013 18:50 24,7 C 49 % 1022,3 hPa 0,0 l/m 6,6 km/h (2 Bft) N-NW 337 13,3 C 27,2 C 8,2 km/h (2 Bft)
20.07.2013 18:55 24,7 C 50 % 1022,3 hPa 0,0 l/m 5,8 km/h (2 Bft) N-NW 337 13,6 C 27,7 C 9,7 km/h (2 Bft)
20.07.2013 19:00 24,5 C 50 % 1022,3 hPa 0,0 l/m 6,4 km/h (2 Bft) N 360 13,4 C 27,8 C 7,2 km/h (2 Bft)
20.07.2013 19:05 24,5 C 51 % 1022,4 hPa 0,0 l/m 6,4 km/h (2 Bft) W-NW 292 13,7 C 27,9 C 4,5 km/h (1 Bft)
20.07.2013 19:10 24,3 C 51 % 1022,4 hPa 0,0 l/m 4,7 km/h (1 Bft) N 360 13,5 C 27,8 C 6,3 km/h (2 Bft)
20.07.2013 19:15 24,1 C 50 % 1022,4 hPa 0,0 l/m 5,0 km/h (1 Bft) W-NW 292 13,0 C 27,3 C 8,5 km/h (2 Bft)
20.07.2013 19:20 23,9 C 51 % 1022,4 hPa 0,0 l/m 5,1 km/h (1 Bft) N-NW 337 13,1 C 26,8 C 6,6 km/h (2 Bft)
20.07.2013 19:25 23,9 C 51 % 1022,2 hPa 0,0 l/m 5,1 km/h (1 Bft) N 360 13,1 C 26,6 C 7,1 km/h (2 Bft)
20.07.2013 19:30 23,7 C 52 % 1022,2 hPa 0,0 l/m 4,5 km/h (1 Bft) N 360 13,2 C 26,1 C 5,1 km/h (1 Bft)
20.07.2013 19:35 23,6 C 53 % 1022,2 hPa 0,0 l/m 3,2 km/h (1 Bft) N-NW 337 13,4 C 25,9 C 4,5 km/h (1 Bft)
20.07.2013 19:40 23,5 C 53 % 1022,2 hPa 0,0 l/m 2,9 km/h (1 Bft) N 360 13,4 C 25,7 C 11,4 km/h (2 Bft)
20.07.2013 19:45 23,4 C 53 % 1022,2 hPa 0,0 l/m 4,2 km/h (1 Bft) N 360 13,3 C 25,4 C 9,8 km/h (2 Bft)
20.07.2013 19:50 23,2 C 54 % 1022,2 hPa 0,0 l/m 5,0 km/h (1 Bft) N 360 13,4 C 25,0 C 9,0 km/h (2 Bft)
20.07.2013 19:55 23,0 C 54 % 1022,2 hPa 0,0 l/m 4,7 km/h (1 Bft) N-NO 22 13,2 C 24,8 C 4,8 km/h (1 Bft)
20.07.2013 20:00 22,8 C 56 % 1022,2 hPa 0,0 l/m 5,3 km/h (1 Bft) NW 315 13,6 C 24,3 C 8,2 km/h (2 Bft)
20.07.2013 20:05 22,6 C 56 % 1022,4 hPa 0,0 l/m 4,8 km/h (1 Bft) W-NW 292 13,4 C 24,1 C 4,8 km/h (1 Bft)
20.07.2013 20:10 22,3 C 57 % 1022,4 hPa 0,0 l/m 3,1 km/h (1 Bft) O 90 13,4 C 23,9 C 1,8 km/h (1 Bft)
20.07.2013 20:15 22,1 C 57 % 1022,4 hPa 0,0 l/m 2,3 km/h (1 Bft) N-NW 337 13,2 C 23,7 C 1,8 km/h (1 Bft)
20.07.2013 20:20 21,9 C 58 % 1022,4 hPa 0,0 l/m 1,6 km/h (1 Bft) N 360 13,3 C 23,3 C 3,2 km/h (1 Bft)
20.07.2013 20:25 21,8 C 58 % 1022,2 hPa 0,0 l/m 1,9 km/h (1 Bft) W-SW 247 13,2 C 23,4 C 2,4 km/h (1 Bft)
20.07.2013 20:30 21,5 C 59 % 1022,2 hPa 0,0 l/m 1,8 km/h (1 Bft) O 90 13,1 C 23,2 C 0,0 km/h (0 Bft)
20.07.2013 20:35 21,1 C 59 % 1022,2 hPa 0,0 l/m 1,1 km/h (1 Bft) N 360 12,8 C 22,9 C 0,0 km/h (0 Bft)
20.07.2013 20:40 20,8 C 61 % 1022,2 hPa 0,0 l/m 1,0 km/h (0 Bft) O-SO 112 13,0 C 22,3 C 2,7 km/h (1 Bft)
20.07.2013 20:45 20,8 C 61 % 1022,2 hPa 0,0 l/m 1,0 km/h (0 Bft) O-NO 67 13,0 C 21,8 C 2,3 km/h (1 Bft)
20.07.2013 20:50 20,7 C 61 % 1022,2 hPa 0,0 l/m 1,3 km/h (1 Bft) NO 45 12,9 C 21,2 C 0,0 km/h (0 Bft)
20.07.2013 20:55 20,5 C 62 % 1022,2 hPa 0,0 l/m 1,1 km/h (1 Bft) O 90 13,0 C 20,8 C 0,0 km/h (0 Bft)
20.07.2013 21:00 20,2 C 62 % 1022,2 hPa 0,0 l/m 0,6 km/h (0 Bft) NO 45 12,7 C 20,2 C 0,0 km/h (0 Bft)
20.07.2013 21:05 19,8 C 63 % 1022,2 hPa 0,0 l/m 0,6 km/h (0 Bft) O-NO 67 12,5 C 19,9 C 0,0 km/h (0 Bft)
20.07.2013 21:10 19,2 C 64 % 1022,2 hPa 0,0 l/m 0,2 km/h (0 Bft) O-NO 67 12,2 C 19,4 C 0,0 km/h (0 Bft)
20.07.2013 21:15 19,0 C 65 % 1022,2 hPa 0,0 l/m 0,2 km/h (0 Bft) O-NO 67 12,3 C 19,0 C 1,9 km/h (1 Bft)
20.07.2013 21:20 18,9 C 66 % 1022,2 hPa 0,0 l/m 0,2 km/h (0 Bft) NO 45 12,4 C 18,7 C 0,0 km/h (0 Bft)
20.07.2013 21:25 18,6 C 67 % 1022,4 hPa 0,0 l/m 0,2 km/h (0 Bft) NO 45 12,3 C 18,5 C 0,0 km/h (0 Bft)
20.07.2013 21:30 18,4 C 68 % 1022,4 hPa 0,0 l/m 0,0 km/h (0 Bft) NO 45 12,4 C 18,1 C 0,0 km/h (0 Bft)
20.07.2013 21:35 18,3 C 68 % 1022,4 hPa 0,0 l/m 0,0 km/h (0 Bft) NO 45 12,3 C 17,8 C 0,0 km/h (0 Bft)
20.07.2013 21:40 17,9 C 68 % 1022,4 hPa 0,0 l/m 0,0 km/h (0 Bft) NO 45 11,9 C 17,5 C 0,0 km/h (0 Bft)
20.07.2013 21:45 18,0 C 69 % 1022,6 hPa 0,0 l/m 0,3 km/h (0 Bft) O-NO 67 12,2 C 17,3 C 1,9 km/h (1 Bft)
20.07.2013 21:50 18,1 C 70 % 1022,6 hPa 0,0 l/m 0,8 km/h (0 Bft) O 90 12,5 C 17,3 C 0,0 km/h (0 Bft)
20.07.2013 21:55 17,6 C 70 % 1022,6 hPa 0,0 l/m 0,8 km/h (0 Bft) O 90 12,1 C 17,1 C 0,0 km/h (0 Bft)
20.07.2013 22:00 17,4 C 70 % 1022,6 hPa 0,0 l/m 0,0 km/h (0 Bft) O 90 11,9 C 16,9 C 0,0 km/h (0 Bft)
20.07.2013 22:05 17,4 C 71 % 1022,8 hPa 0,0 l/m 0,0 km/h (0 Bft) NO 45 12,1 C 16,7 C 0,0 km/h (0 Bft)
20.07.2013 22:10 17,6 C 71 % 1022,8 hPa 0,0 l/m 0,0 km/h (0 Bft) O-SO 112 12,3 C 16,6 C 0,0 km/h (0 Bft)
20.07.2013 22:15 17,3 C 71 % 1022,8 hPa 0,0 l/m 0,0 km/h (0 Bft) O 90 12,0 C 16,5 C 0,0 km/h (0 Bft)
20.07.2013 22:20 16,9 C 72 % 1022,8 hPa 0,0 l/m 0,0 km/h (0 Bft) O 90 11,8 C 16,3 C 0,0 km/h (0 Bft)
20.07.2013 22:25 17,2 C 73 % 1022,9 hPa 0,0 l/m 0,0 km/h (0 Bft) NO 45 12,3 C 16,3 C 0,0 km/h (0 Bft)
20.07.2013 22:30 16,7 C 73 % 1022,9 hPa 0,0 l/m 0,0 km/h (0 Bft) NO 45 11,8 C 16,1 C 0,0 km/h (0 Bft)
20.07.2013 22:35 16,4 C 74 % 1022,9 hPa 0,0 l/m 0,0 km/h (0 Bft) NO 45 11,8 C 15,8 C 0,0 km/h (0 Bft)
20.07.2013 22:40 16,1 C 74 % 1022,9 hPa 0,0 l/m 0,0 km/h (0 Bft) O 90 11,5 C 15,6 C 0,0 km/h (0 Bft)
20.07.2013 22:45 16,1 C 75 % 1023,0 hPa 0,0 l/m 0,0 km/h (0 Bft) O 90 11,7 C 15,4 C 0,0 km/h (0 Bft)
20.07.2013 22:50 16,2 C 76 % 1023,0 hPa 0,0 l/m 0,0 km/h (0 Bft) O 90 12,0 C 15,4 C 0,0 km/h (0 Bft)
20.07.2013 22:55 16,1 C 76 % 1023,0 hPa 0,0 l/m 0,0 km/h (0 Bft) O 90 11,9 C 15,4 C 0,0 km/h (0 Bft)
20.07.2013 23:00 15,6 C 77 % 1023,0 hPa 0,0 l/m 0,0 km/h (0 Bft) O-SO 112 11,6 C 15,2 C 0,0 km/h (0 Bft)
20.07.2013 23:05 15,5 C 77 % 1023,0 hPa 0,0 l/m 0,0 km/h (0 Bft) O-SO 112 11,5 C 15,0 C 0,0 km/h (0 Bft)
20.07.2013 23:10 15,3 C 78 % 1023,0 hPa 0,0 l/m 0,0 km/h (0 Bft) O 90 11,5 C 14,9 C 0,0 km/h (0 Bft)
20.07.2013 23:15 15,3 C 78 % 1023,0 hPa 0,0 l/m 0,0 km/h (0 Bft) O 90 11,5 C 14,8 C 0,0 km/h (0 Bft)
20.07.2013 23:20 15,2 C 79 % 1023,0 hPa 0,0 l/m 0,0 km/h (0 Bft) O-SO 112 11,6 C 14,6 C 0,0 km/h (0 Bft)
20.07.2013 23:25 15,3 C 79 % 1023,2 hPa 0,0 l/m 0,0 km/h (0 Bft) O 90 11,7 C 14,6 C 0,0 km/h (0 Bft)
20.07.2013 23:30 15,4 C 79 % 1023,2 hPa 0,0 l/m 0,0 km/h (0 Bft) O 90 11,8 C 14,6 C 0,0 km/h (0 Bft)
20.07.2013 23:35 15,6 C 79 % 1023,2 hPa 0,0 l/m 0,0 km/h (0 Bft) NO 45 12,0 C 14,6 C 0,0 km/h (0 Bft)
20.07.2013 23:40 15,3 C 79 % 1023,2 hPa 0,0 l/m 0,0 km/h (0 Bft) O 90 11,7 C 14,6 C 0,0 km/h (0 Bft)
20.07.2013 23:45 15,0 C 79 % 1023,2 hPa 0,0 l/m 0,0 km/h (0 Bft) O-SO 112 11,4 C 14,6 C 0,0 km/h (0 Bft)
20.07.2013 23:50 14,9 C 80 % 1023,2 hPa 0,0 l/m 0,0 km/h (0 Bft) O 90 11,5 C 14,3 C 0,0 km/h (0 Bft)
20.07.2013 23:55 14,8 C 80 % 1023,2 hPa 0,0 l/m 0,0 km/h (0 Bft) O-SO 112 11,4 C 14,3 C 0,0 km/h (0 Bft)
_ Min-Zeit 05:45 16:20 06:20 - 23:55 - - 05:45 05:45 23:55
Minimum _ 12,1 C 37 % 1021,9 hPa - 0,0 km/h (0 Bft) - - 11,3 C 11,8 C 0,0 km/h (0 Bft)
_ Max-Zeit 15:00 06:45 13:40 23:55 18:45 - - 09:45 16:15 16:50
Maximum _ 29,0 C 95 % 1023,9 hPa 0,0 l/m 7,2 km/h
NO (2 Bft)
- - 22,2 C 32,0 C 19,5 km/h
W-NW (3 Bft)
Durchschnitt _ 20,7 C 69 % 1022,8 hPa #0,0 l/m 2,1 km/h (1 Bft) W-NW - 13,8 C 21,7 C 2,9 km/h (1 Bft)